Regional Weather Roundup
Issued by NWS

Home | Current Version | Previous Version | Graphics & Text | Print | Product List | Glossary On
Versions: 1 2 3 4 5 6 7 8 9 10 11 12 13 14 15 16 17 18 19 20 21 22 23 24 25 26 27 28 29 30 31 32 33 34 35 36 37 38 39 40 41 42 43 44 45 46 47 48 49 50
000
ASUS43 KLSX 101910
RWRMO

WEATHER SUMMARY FOR MISSOURI
NATIONAL WEATHER SERVICE SPRINGFIELD MO
100 PM CST WED FEB 10 2016

NOTE: "FAIR" INDICATES FEW OR NO CLOUDS BELOW 12,000 FEET WITH NO
       SIGNIFICANT WEATHER AND/OR OBSTRUCTIONS TO VISIBILITY.
       CURRENT SKY AND/OR WEATHER CONDITIONS ARE NOT AVAILABLE FOR
       CHILLICOTHE AND FARMINGTON.

MOZ001>031-035>038-043-044-053-054-102000-
...NORTHERN AND WESTERN MISSOURI...

CITY           SKY/WX    TMP DP  RH WIND       PRES   REMARKS
KANSAS CTY INT MOSUNNY   41  18  39 SW20      29.94F
KANSAS C DTWN  SUNNY     43  17  35 SW16G23   29.96F
LEE`S SUMMIT   SUNNY     40  16  37 SW20G28   29.97F
ST JOSEPH      SUNNY     40  17  39 S10       29.96F
CHILLICOTHE      N/A     31  20  63 SE9       30.04F WCI  23
KIRKSVILLE     LGT SNOW  21  15  78 SE6       30.05F WCI  13

$$
MOZ066>068-077>081-088>096-101>105-102000-
...SOUTHWEST MISSOURI...

CITY           SKY/WX    TMP DP  RH WIND       PRES   REMARKS
SPRINGFIELD    SUNNY     41  13  31 SW17G24   30.03F
JOPLIN         SUNNY     45  18  34 SW21G28   30.05F

$$
MOZ032>034-039>042-045>050-055>058-069>072-102000-
...CENTRAL MISSOURI...

CITY           SKY/WX    TMP DP  RH WIND       PRES   REMARKS
COLUMBIA       CLOUDY    23  19  85 SE7       30.07F WCI  15
JEFFERSON CITY CLOUDY    24  19  81 SE7       30.11F WCI  16
ROLLA          CLOUDY    22  19  89 S7        30.06F WCI  13
SEDALIA        MOSUNNY   36  13  38 S16G23    30.04F WCI  26
WARRENSBURG    MOSUNNY   37  16  41 S15G23    30.00F WCI  28
OSAGE BEACH    CLOUDY    34  12  40 SE7       30.07F WCI  28

$$
MOZ051-052-059>065-102000-
...EAST CENTRAL MISSOURI...

CITY           SKY/WX    TMP DP  RH WIND       PRES   REMARKS
ST LOUIS INTL  NOT AVBL
SPIRIT OF STL  LGT SNOW  21  15  78 SW6       30.14F WCI  13
ST CHARLES     LGT SNOW  21  13  71 W5        30.14F WCI  15

$$
MOZ072>076-082>087-097>100-106>115-102000-
...SOUTH CENTRAL AND SOUTHEAST MISSOURI...

CITY           SKY/WX    TMP DP  RH WIND       PRES   REMARKS
CAPE GIRARDEAU FLURRIES  25   8  48 W7        30.20F WCI  17
FARMINGTON     LGT SNOW  21  16  79 CALM      30.13F
POPLAR BLUFF   FLURRIES  27  11  51 SW10      30.19F WCI  17
WEST PLAINS    SUNNY     35  11  36 S9        30.10F WCI  28

$$



USA.gov is the U.S. government's official web portal to all federal, state and local government web resources and services.